TOURFACTS.DK  
Stats and Facts from Tour de France.

Tour de France 2018 starts in 254 days
  Riders   Stages   Teams   Summits   Yearly  


 
Search by year

 2017 - St. 21:  14824 starters.
  5131 different riders.
  634 teams.
  2232 stages.
  454 restdays.
  439589.60 km.
  5653 abandonnees.


Top 3
Christopher Froome86:20:55
Rigoberto Uran86:21:49
Romain Bardet86:23:15
Warren Barguil169 pt.
Primoz Roglic80 pt.
Thomas De Gendt64 pt.
Michael Matthews359 pt.
André Greipel234 pt.
Edvald Boasson Hagen220 pt.
Simon Yates86:27:09
Louis Meintjes86:29:15
Emanuel Buchmann86:54:16
Facts from Tour de France 2014
  |   Stages.  |   Stage winners.  |   Days in yellow  |   Average speed.  |   Route.  |   Teams.  |   All riders.  |   Rookies.  |   Withdrawls.  |  

  |   GC.  |   Polka  |   Green  |   White  |   Summits. (In tour)  |   Summits. (Points)  |   Miscellaneous.  |  

Stage 12 on 17 - 07 - 2014
         Owning:    Vincenzo Nibali      Peter Sagan      Joaquim Rodriguez      Romain Bardet  

Pick a stage:  1 2 3 4 5 6 7 8 9 10 11 12 13 14 15 16 17 18 19 20 21
  Bourg-en-BresseSaint-Étienne | Dist: 185.50 km.
Cat: 4Col de BrouillyESPDavid de la Cruz
1 point
 
Cat: 3Côte du Saule-d'OingtESPDavid de la Cruz
2 points
 
Cat: 3Col des BrossesNEDSebastian Langeveld
2 points
 
Cat: 4Côte de GrammondAUSSimon Clarke
1 point
 

Average speed for all riders in stage:  40,420 km./hr.
    Place:Name:Team:Time:Km/h:
NORAlexander KristoffRUSTeam Katusha04:32:11  +  00:00:00=40,892 
SVKPeter SaganITACannondale Pro Cycling04:32:11  +  00:00:00=40,892 
FRAArnaud DémareFRAFDJ.fr04:32:11  +  00:00:00=40,892 
4 SUIMichael AlbasiniAUSOrica - GreenEDGE04:32:11  +  00:00:00=40,892 
5 URSRamunas NavardauskasUSAGarmin Sharp04:32:11  +  00:00:00=40,892 
6 ITADaniele BennatiRUSTinkoff Saxo04:32:11  +  00:00:00=40,892 
7 FRABryan CoquardFRATeam Europcar04:32:11  +  00:00:00=40,892 
8 ITADaniel OssUSABMC Racing Team04:32:11  +  00:00:00=40,892 
9 FRASamuel DumoulinFRAAg2r La Mondiale04:32:11  +  00:00:00=40,892 
10 ESPJosé Joaquin RojasESPMovistar Team04:32:11  +  00:00:00=40,892 
11 FRARomain FeilluFRABretagne - Séché Environnement04:32:11  +  00:00:00=40,892 
12 FRAArmindo FonsecaFRABretagne - Séché Environnement04:32:11  +  00:00:00=40,892 
13 GERJohn DegenkolbNLDTeam Giant - Shimano04:32:11  +  00:00:00=40,892 
14 BELJürgen RoelandtsBELLotto-Belisol Team04:32:11  +  00:00:00=40,892 
15 NEDBauke MollemaNLDBelkin Pro Cycling04:32:11  +  00:00:00=40,892 
16 POLMichal KwiatkowskiBELOmega Pharma – Quick Step04:32:11  +  00:00:00=40,892 
17 AUSHeinrich HausslerCHEIAM Cycling04:32:11  +  00:00:00=40,892 
18 FRACyril LemoineFRACofidis – Solutions Crédits04:32:11  +  00:00:00=40,892 
19 FRAAnthony DelaplaceFRABretagne - Séché Environnement04:32:11  +  00:00:00=40,892 
20 AUSRichie PorteGBRSky Procycling04:32:11  +  00:00:00=40,892 
21 JPNChristopher HornerITALampre-Merida04:32:11  +  00:00:00=40,892 
22 AUSSimon GerransAUSOrica - GreenEDGE04:32:11  +  00:00:00=40,892 
23 LUXBen GastauerFRAAg2r La Mondiale04:32:11  +  00:00:00=40,892 
24 ITAVincenzo NibaliKAZAstana Pro Team04:32:11  +  00:00:00=40,892 
25 WALGeraint ThomasGBRSky Procycling04:32:11  +  00:00:00=40,892 
26 FRABrice FeilluFRABretagne - Séché Environnement04:32:11  +  00:00:00=40,892 
27 NEDBram TankinkNLDBelkin Pro Cycling04:32:11  +  00:00:00=40,892 
28 RUSAlexander PorsevRUSTeam Katusha04:32:11  +  00:00:00=40,892 
29 BELJurgen Van Den BroeckBELLotto-Belisol Team04:32:11  +  00:00:00=40,892 
30 SUIJakob FuglsangKAZAstana Pro Team04:32:11  +  00:00:00=40,892 
31 ESPMikel NieveGBRSky Procycling04:32:11  +  00:00:00=40,892 
32 ITAElia VivianiITACannondale Pro Cycling04:32:11  +  00:00:00=40,892 
33 ESPAlejandro ValverdeESPMovistar Team04:32:11  +  00:00:00=40,892 
34 FRAPierre RollandFRATeam Europcar04:32:11  +  00:00:00=40,892 
35 FRAJean-Christophe PeraudFRAAg2r La Mondiale04:32:11  +  00:00:00=40,892 
36 FRAThibaut PinotFRAFDJ.fr04:32:11  +  00:00:00=40,892 
37 AUTBernhard EiselGBRSky Procycling04:32:11  +  00:00:00=40,892 
38 USATejay Van GarderenUSABMC Racing Team04:32:11  +  00:00:00=40,892 
39 FRARomain BardetFRAAg2r La Mondiale04:32:11  +  00:00:00=40,892 
40 NEDSteven KruijswijkNLDBelkin Pro Cycling04:32:11  +  00:00:00=40,892 
41 NEDLaurens ten DamNLDBelkin Pro Cycling04:32:11  +  00:00:00=40,892 
42 CZELeopold KönigDEUTeam NetApp – Endura04:32:11  +  00:00:00=40,892 
43 GERPaul VossDEUTeam NetApp – Endura04:32:11  +  00:00:00=40,892 
44 ESPHaimar ZubeldiaUSATrek Factory Racing04:32:11  +  00:00:00=40,892 
45 FRAJean-Marc BideauFRABretagne - Séché Environnement04:32:11  +  00:00:00=40,892 
46 URSTanel KangertKAZAstana Pro Team04:32:11  +  00:00:00=40,892 
47 PORRui CostaITALampre-Merida04:32:11  +  00:00:00=40,892 
48 LUXFränk SchleckUSATrek Factory Racing04:32:11  +  00:00:00=40,892 
49 FRAJérôme PineauCHEIAM Cycling04:32:11  +  00:00:00=40,892 
50 RUSYury TrofimovRUSTeam Katusha04:32:11  +  00:00:00=40,892 
51 SVKPeter VelitsUSABMC Racing Team04:32:11  +  00:00:00=40,892 
52 USAPeter StetinaUSABMC Racing Team04:32:11  +  00:00:00=40,892 
53 FRACyril GautierFRATeam Europcar04:32:11  +  00:00:00=40,892 
54 BELJens KeukeleireAUSOrica - GreenEDGE04:32:11  +  00:00:00=40,892 
55 JPNYukiya ArashiroFRATeam Europcar04:32:11  +  00:00:00=40,892 
56 ESPMarkel IrizarUSATrek Factory Racing04:32:11  +  00:00:00=40,892 
57 SUISébastien ReichenbachCHEIAM Cycling04:32:11  +  00:00:00=40,892 
58 GERTony MartinBELOmega Pharma – Quick Step04:32:11  +  00:00:00=40,892 
59 FRAJérémy RoyFRAFDJ.fr04:32:11  +  00:00:00=40,892 
60 ITAMatteo TrentinBELOmega Pharma – Quick Step04:32:11  +  00:00:00=40,892 
61 SUIMichael SchärUSABMC Racing Team04:32:27  +  00:00:16=40,852 
62 NEDKoen De KortNLDTeam Giant - Shimano04:32:31  +  00:00:20=40,842 
63 AUSAdam HansenBELLotto-Belisol Team04:32:31  +  00:00:20=40,842 
64 FRAMickael DelageFRAFDJ.fr04:32:35  +  00:00:24=40,832 
65 UKRAndriy GrivkoKAZAstana Pro Team04:32:36  +  00:00:25=40,829 
66 DENMichael MørkøvRUSTinkoff Saxo04:32:42  +  00:00:31=40,814 
67 FRAKévin RezaFRATeam Europcar04:32:52  +  00:00:41=40,789 
68 FRAFlorian GuillouFRABretagne - Séché Environnement04:32:52  +  00:00:41=40,789 
69 NEDRoy CurversNLDTeam Giant - Shimano04:32:52  +  00:00:41=40,789 
70 ITAGiovanni ViscontiESPMovistar Team04:32:56  +  00:00:45=40,779 
71 ITAFabio SabatiniITACannondale Pro Cycling04:32:56  +  00:00:45=40,779 
72 SLOKristjan KorenITACannondale Pro Cycling04:32:56  +  00:00:45=40,779 
73 BELJan BakelantsBELOmega Pharma – Quick Step04:33:03  +  00:00:52=40,762 
74 ITALuca PaoliniRUSTeam Katusha04:33:23  +  00:01:12=40,712 
75 ITAMarco MarcatoITACannondale Pro Cycling04:33:27  +  00:01:16=40,702 
76 FRABenoît JarrierFRABretagne - Séché Environnement04:33:31  +  00:01:20=40,692 
77 POLMichal GolasBELOmega Pharma – Quick Step04:33:45  +  00:01:34=40,658 
78 ITAAlessandro De MarchiITACannondale Pro Cycling04:33:45  +  00:01:34=40,658 
79 POLMaciej BodnarITACannondale Pro Cycling04:33:45  +  00:01:34=40,658 
80 ESPLuis Angel MateFRACofidis – Solutions Crédits04:33:45  +  00:01:34=40,658 
81 FRACédric PineauFRAFDJ.fr04:33:45  +  00:01:34=40,658 
82 FRAArnold JeannessonFRAFDJ.fr04:33:45  +  00:01:34=40,658 
83 USABenjamin KingUSAGarmin Sharp04:33:45  +  00:01:34=40,658 
84 AUSMichael RogersRUSTinkoff Saxo04:33:45  +  00:01:34=40,658 
85 FRAMickaël CherelFRAAg2r La Mondiale04:33:45  +  00:01:34=40,658 
86 CANChristian MeierAUSOrica - GreenEDGE04:33:45  +  00:01:34=40,658 
87 NEDTom DumoulinNLDTeam Giant - Shimano04:33:45  +  00:01:34=40,658 
88 FRARudy MolardFRACofidis – Solutions Crédits04:33:45  +  00:01:34=40,658 
89 GERMarcel SiebergBELLotto-Belisol Team04:33:45  +  00:01:34=40,658 
90 NEDNiki TerpstraBELOmega Pharma – Quick Step04:33:50  +  00:01:39=40,645 
91 URSGatis SmukulisRUSTeam Katusha04:34:17  +  00:02:06=40,578 
92 CZEJan BártaDEUTeam NetApp – Endura04:34:17  +  00:02:06=40,578 
93 ESPDaniel NavarroFRACofidis – Solutions Crédits04:34:35  +  00:02:24=40,534 
94 FRAArnaud GérardFRABretagne - Séché Environnement04:34:35  +  00:02:24=40,534 
95 FRAThomas VoecklerFRATeam Europcar04:34:35  +  00:02:24=40,534 
96 SUIMarcel WyssCHEIAM Cycling04:34:35  +  00:02:24=40,534 
97 SUIMartin ElmigerCHEIAM Cycling04:34:35  +  00:02:24=40,534 
98 DENLars BakBELLotto-Belisol Team04:34:35  +  00:02:24=40,534 
99 NEDLieuwe WestraKAZAstana Pro Team04:34:35  +  00:02:24=40,534 
100 ESPImanol ErvitiESPMovistar Team04:34:35  +  00:02:24=40,534 
101 ESPRubén PlazaESPMovistar Team04:34:35  +  00:02:24=40,534 
102 FRAJohn GadretESPMovistar Team04:34:35  +  00:02:24=40,534 
103 HRVKristijan DurasekITALampre-Merida04:34:35  +  00:02:24=40,534 
104 SUIReto HollensteinCHEIAM Cycling04:34:35  +  00:02:24=40,534 
105 FRAJulien SimonFRACofidis – Solutions Crédits04:34:35  +  00:02:24=40,534 
106 FRASébastien MinardFRAAg2r La Mondiale04:34:35  +  00:02:24=40,534 
107 BELJohan VansummerenUSAGarmin Sharp04:34:35  +  00:02:24=40,534 
108 COLJosé SerpaITALampre-Merida04:34:35  +  00:02:24=40,534 
109 BELMaarten WynantsNLDBelkin Pro Cycling04:34:35  +  00:02:24=40,534 
110 BELGreg Van AvermaetUSABMC Racing Team04:34:35  +  00:02:24=40,534 
111 NEDLars BoomNLDBelkin Pro Cycling04:34:35  +  00:02:24=40,534 
112 AUSZakkari DempsterDEUTeam NetApp – Endura04:34:35  +  00:02:24=40,534 
113 GERAndreas SchillingerDEUTeam NetApp – Endura04:34:35  +  00:02:24=40,534 
114 PORSergio PaulinhoRUSTinkoff Saxo04:34:35  +  00:02:24=40,534 
115 ITAMatteo TosattoRUSTinkoff Saxo04:34:35  +  00:02:24=40,534 
116 ITAAlessandro PetacchiBELOmega Pharma – Quick Step04:34:35  +  00:02:24=40,534 
117 FRAAmaël MoinardUSABMC Racing Team04:34:35  +  00:02:24=40,534 
118 BLRVasil KiryienkaGBRSky Procycling04:34:35  +  00:02:24=40,534 
119 FRANicolas RocheRUSTinkoff Saxo04:34:35  +  00:02:24=40,534 
120 ENGSimon YatesAUSOrica - GreenEDGE04:34:35  +  00:02:24=40,534 
121 CANSvein TuftAUSOrica - GreenEDGE04:34:35  +  00:02:24=40,534 
122 ITAMatteo MontagutiFRAAg2r La Mondiale04:34:35  +  00:02:24=40,534 
123 FRAPerrig QuemeneurFRATeam Europcar04:35:04  +  00:02:53=40,463 
124 RUSVladimir IsaichevRUSTeam Katusha04:35:40  +  00:03:29=40,375 
125 POLBartosz HuzarskiDEUTeam NetApp – Endura04:36:12  +  00:04:01=40,297 
126 NEDTom-Jelte SlagterUSAGarmin Sharp04:36:12  +  00:04:01=40,297 
127 SLOSimon SpilakRUSTeam Katusha04:36:12  +  00:04:01=40,297 
128 FRASylvain ChavanelCHEIAM Cycling04:36:55  +  00:04:44=40,193 
129 BELSep VanmarckeNLDBelkin Pro Cycling04:37:04  +  00:04:53=40,171 
130 FRAAdrien PetitFRACofidis – Solutions Crédits04:37:22  +  00:05:11=40,127 
131 POLRafal MajkaRUSTinkoff Saxo04:37:51  +  00:05:40=40,058 
132 ESPDavid LopezGBRSky Procycling04:37:56  +  00:05:45=40,046 
133 ESPJoaquim RodriguezRUSTeam Katusha04:37:56  +  00:05:45=40,046 
134 ESPRafael Valls FerriITALampre-Merida04:37:56  +  00:05:45=40,046 
135 PORJosé João PimentaDEUTeam NetApp – Endura04:37:56  +  00:05:45=40,046 
136 FRANicolas EdetFRACofidis – Solutions Crédits04:37:56  +  00:05:45=40,046 
137 FRABlel KadriFRAAg2r La Mondiale04:37:56  +  00:05:45=40,046 
138 FRAMatthieu LadagnousFRAFDJ.fr04:37:56  +  00:05:45=40,046 
139 FRATony GallopinBELLotto-Belisol Team04:37:56  +  00:05:45=40,046 
140 GERAndré GreipelBELLotto-Belisol Team04:38:09  +  00:05:58=40,014 
141 AUSSimon ClarkeAUSOrica - GreenEDGE04:38:34  +  00:06:23=39,955 
142 BELDries DevenynsNLDTeam Giant - Shimano04:39:20  +  00:07:09=39,845 
143 NZLJack BauerUSAGarmin Sharp04:39:25  +  00:07:14=39,833 
144 GERRoger KlugeCHEIAM Cycling04:39:25  +  00:07:14=39,833 
145 ESPJon Izaguirre InsaustiESPMovistar Team04:39:25  +  00:07:14=39,833 
146 URSRein TaaramäeFRACofidis – Solutions Crédits04:39:25  +  00:07:14=39,833 
147 NEDAlbert TimmerNLDTeam Giant - Shimano04:39:25  +  00:07:14=39,833 
148 GERJens VoigtUSATrek Factory Racing04:42:23  +  00:10:12=39,415 
149 GERMarcel KittelNLDTeam Giant - Shimano04:42:23  +  00:10:12=39,415 
150 ESPJesus HerradaESPMovistar Team04:42:23  +  00:10:12=39,415 
151 PORTiago PintoDEUTeam NetApp – Endura04:42:23  +  00:10:12=39,415 
152 AUSMark RenshawBELOmega Pharma – Quick Step04:42:23  +  00:10:12=39,415 
153 AUSLuke DurbridgeAUSOrica - GreenEDGE04:42:23  +  00:10:12=39,415 
154 USAAlex HowesUSAGarmin Sharp04:42:23  +  00:10:12=39,415 
155 ITAAlessandro VanottiKAZAstana Pro Team04:42:23  +  00:10:12=39,415 
156 NEDTom VeelersNLDTeam Giant - Shimano04:42:23  +  00:10:12=39,415 
157 COLJanier AcevedoUSAGarmin Sharp04:42:23  +  00:10:12=39,415 
158 GERMarcus BurghardtUSABMC Racing Team04:42:23  +  00:10:12=39,415 
159 SUIGregory RastUSATrek Factory Racing04:42:23  +  00:10:12=39,415 
160 PORNelson OliveiraITALampre-Merida04:42:23  +  00:10:12=39,415 
161 USAMatthew BuscheUSATrek Factory Racing04:42:23  +  00:10:12=39,415 
162 USADanny PateGBRSky Procycling04:42:23  +  00:10:12=39,415 
163 FRAWilliam BonnetFRAFDJ.fr04:42:23  +  00:10:12=39,415 
164 NEDTom LeezerNLDBelkin Pro Cycling04:42:23  +  00:10:12=39,415 
165 ESPBeñat IntxaustiESPMovistar Team04:42:23  +  00:10:12=39,415 
166 ITADavide CimolaiITALampre-Merida04:42:23  +  00:10:12=39,415 
167 NEDSebastian LangeveldUSAGarmin Sharp04:42:23  +  00:10:12=39,415 
168 KAZMaxim IglinskiyKAZAstana Pro Team04:42:23  +  00:10:12=39,415 
169 KAZDmitriy GruzdevKAZAstana Pro Team04:42:23  +  00:10:12=39,415 
170 ITAMichele ScarponiKAZAstana Pro Team04:42:23  +  00:10:12=39,415 
171 FRAJean-Marc MarinoITACannondale Pro Cycling04:42:23  +  00:10:12=39,415 
172 FRAYohann GèneFRATeam Europcar04:42:23  +  00:10:12=39,415 
173 FRAFlorian VachonFRABretagne - Séché Environnement04:42:23  +  00:10:12=39,415 
174 FRAAlexandre PichotFRATeam Europcar04:42:23  +  00:10:12=39,415 
175 FRAArthur VichotFRAFDJ.fr04:44:15  +  00:12:04=39,156 
176 FRAChristophe RiblonFRAAg2r La Mondiale04:44:15  +  00:12:04=39,156 
177 CHNCheng JiNLDTeam Giant - Shimano04:44:15  +  00:12:04=39,156 

Withdrawls: 2
 
Rider
Team
Reason
91  USAAndrew TalanskyUSAGarmin SharpDid not start
203  ESPDavid de la CruzDEUTeam NetApp – EnduraDid not finish

Todays birthdays.

1886  Jean Meziere
1887  Pierre Herbette
1887  Octave Lapize
1898  Felix Manthey
1920  René Biever
1920  Georges Ramoulux
1928  René Marigil
1940  Jean-Pierre Genet
1944  Giannino Bianco
1945  Eddy Cael
1950  Bert Pronk
1954  Marc Dierickx
1961  Chris Carmichael
1973  Levi Leipheimer